Regional Weather Roundup
Issued by NWS Albany, NY

Home | Current Version | Previous Version | Text Only | Print | Product List | Glossary On
Versions: 1 2 3 4 5 6 7 8 9 10 11 12 13 14 15 16 17 18 19 20 21 22 23 24 25 26 27 28 29 30 31 32 33 34 35 36 37 38 39 40 41 42 43 44 45 46 47 48 49 50
000
ASUS41 KALY 191410
RWRALY

NEW YORK STATE HOURLY WEATHER ROUNDUP
NATIONAL WEATHER SERVICE ALBANY NY
900 AM EST FRI DEC 19 2014

NOTE: "FAIR" INDICATES FEW OR NO CLOUDS BELOW 12,000 FEET WITH NO
SIGNIFICANT WEATHER AND/OR NO OBSTRUCTIONS TO VISIBILITY.

NYZ032-033-038>043-046>054-057>066-NYZ062>081-191500-
EAST


CITY           SKY/WX    TMP DP  RH WIND       PRES   REMARKS
ALBANY         CLOUDY    30  20  66 NW13      30.05R WCI  20
GLENS FALLS    CLOUDY    30  19  63 N8        30.03R WCI  22
POUGHKEEPSIE   CLOUDY    34  19  54 NW9       30.04R WCI  27
MONTGOMERY     CLOUDY    32  20  61 NW9       30.03R WCI  24
WHITE PLAINS   PTSUNNY   34  22  61 W10       30.01R WCI  26
ISLIP          CLOUDY    37  23  56 NW10      30.00R WCI  30
NEW YORK CITY  CLOUDY    35  23  61 NW16      30.05R WCI  25
CENTRAL PARK   CLOUDY    36  20  52 N5        30.07R WCI  32
$$

NYZ005>009-017-018-044>046-055-056-191500-
CENTRAL


CITY           SKY/WX    TMP DP  RH WIND       PRES   REMARKS
FULTON         CLOUDY    24  17  74 NW12      30.13R WCI  13
SYRACUSE       FLURRIES  24  21  88 NW9       30.13R WCI  14
ROME           LGT SNOW  25  22  88 W14       30.11R FOG     WCI  13
ELMIRA         CLOUDY    28  21  75 NW7       30.11R HAZE    WCI  21
BINGHAMTON     LGT SNOW  22  20  92 NW16G25   30.03R FOG     WCI   8
MONTICELLO     CLOUDY    25  19  80 NW13G22   30.02R WCI  13
$$

NYZ026>034-041>043-191500-
NORTH


CITY           SKY/WX    TMP DP  RH WIND       PRES   REMARKS
WATERTOWN      CLOUDY    25  18  74 N6        30.13R WCI  18
FORT DRUM      NOT AVBL
MASSENA        CLOUDY    22  15  75 W8        30.12R WCI  12
SARANAC LAKE   CLOUDY    18  32 100 W6        29.97R WCI  10
PLATTSBURGH    CLOUDY    25  18  74 N9        30.06R WCI  15
$$

NYZ001>004-010>016-019>021-191500-
WEST


CITY           SKY/WX    TMP DP  RH WIND       PRES   REMARKS
NIAGARA FALLS  FLURRIES  26  22  84 NW12      30.17R WCI  16
BUFFALO        LGT SNOW  26  20  77 W6        30.17R WCI  19
DUNKIRK        CLOUDY    27  20  75 W6        30.19R WCI  20
JAMESTOWN      CLOUDY    25  19  80 NW12      30.11R WCI  14
WELLSVILLE     CLOUDY    23  19  85 NW12      30.06R WCI  12
ROCHESTER      CLOUDY    25  21  85 W9        30.16R WCI  15
PENN YAN       CLOUDY    24  19  81 NW7       30.13R WCI  16
$$

             KEY
       WCI = WIND CHILL INDEX
       VSB = VISIBILITY
       HX  = HEAT INDEX
$$



USA.gov is the U.S. government's official web portal to all federal, state and local government web resources and services.